Location: Melbourne
(37.8170°S, 144.9670°E)
Time: 13:16:03
(UTC+11:00)

CZ-3 R/B - Visible Passes

Search period start: 20 December 2014 00:00
Search period end: 30 December 2014 00:00
Orbit: 194 x 14388 km, 28.6° (Epoch: 19 December)

Date Brightness Start Highest point End Pass type
(mag) Time Alt. Az. Time Alt. Az. Time Alt. Az.
22 Dec 6.6 06:09:24 10° N 06:37:13 13° NNE 06:51:52 10° NE visible
27 Dec 6.8 04:41:10 10° N 05:24:11 13° NNE 05:45:24 10° NE visible
29 Dec 6.6 04:59:23 10° N 05:56:58 17° NNE 06:18:50 10° NE visible
